sat.trackr.live / text

‹ back to catalog

OBSERVER-1A

NORAD 58323 · 2023-174BV

PAYLOAD ACTIVE UNKNOWN

§ Identity

Operator
Country
SKOR
Launch date
2023-11-11
Launch site
AFWTR
Launch vehicle
Mass (kg)
RCS (m²)

External: N2YO · Heavens-Above · Gunter

§ Orbital elements

Epoch: 2026-05-25T04:48:19.247328Z

Period
93.62 min
Inclination
97.3939°
Eccentricity
0.0006923
Mean motion
15.38052551 rev/d
Perigee alt
447.1 km
Apogee alt
456.6 km
Semi-major
6,830.0 km
B*
2.6513e-4
RAAN
228.7896°
Arg perigee
228.3285°
Mean anomaly
131.7368°
Rev number
14,167

§ Raw data

OBSERVER-1A1 58323U 23174BV  26145.20022277  .00009853  00000+0  26513-3 0  99922 58323  97.3939 228.7896 0006923 228.3285 131.7368 15.38052551141678

JSON: /api/v1/satellites/58323 · /tle

For live sub-satellite position, see the globe view (requires WebGL).

§ Visibility from observer

Set your observer location to see the next 7 days of passes ≥ 10°. The values pass through the URL so the page stays shareable.

No JS? Fill the form by hand. The geolocation button needs JavaScript.

§ Radio — SatNOGS DB

ModeDescriptionDownlinkUplink
FM S-band telemetry 2.246 GHz

1 transmitter · refreshed weekly from db.satnogs.org